CAPE
0 0 0 0 0 0 0 0 0 0 0 0 0 0 0 0 0 0 0 0 0 0
0 0 0 0 0 0 0 0 0 0 0 0 0 0 0 0 0 0 0 0 0 0
0 0 0 0 0 0 0 0 0 0 0 0 0 0 0 0 0 0 0 0 1 1
0 0 0 0 0 0 0 0 0 0 0 0 0 0 0 0 0 0 0 0 0 1
0 0 0 0 0 0 0 0 0 0 0 0 0 0 0 0 0 0 0 0 1 2
0 0 0 0 0 0 0 0 0 0 0 0 0 0 0 0 0 0 0 0 0 3
0 0 0 0 0 0 0 0 0 0 0 0 0 0 0 0 0 0 0 0 0 3
0 0 0 0 0 0 0 0 0 0 0 0 0 0 0 0 0 0 0 0 0 1
0 0 0 0 0 0 0 0 0 0 0 0 0 0 0 0 0 0 0 0 0 0
0 0 0 0 0 0 0 0 0 0 0 0 0 0 0 0 0 0 0 0 0 0
0 0 0 0 0 0 0 0 0 0 0 0 0 0 0 0 0 0 0 0 0 0
0 0 0 0 0 0 0 0 0 0 0 0 0 0 0 0 0 0 0 0 0 0
0 0 0 0 0 0 0 0 0 0 0 0 0 0 0 0 0 0 0 0 0 1
0 0 0 0 0 0 0 0 0 0 0 0 0 0 0 0 0 0 0 0 0 0
CIN
-0 -0 -0 -0 -0 -0 -0 -0 -0 -0 -0 -0 -0 -0 -0 -0 -0 -0 -0 -0 -0 -0
-0 -0 -0 -0 -0 -0 -0 -0 -0 -0 -0 -0 -0 -0 -0 -0 -0 -0 -0 -0 -0 -0
-0 -0 -0 -0 -0 -0 -0 -0 -0 -0 -0 -0 -0 -0 -0 -0 -0 -0 -0 -0 -0 -0
-0 -0 -0 -0 -0 -0 -0 -0 -0 -0 -0 -0 -0 -0 -0 -0 -0 -0 -0 -0 -0 -0
-0 -0 -0 -0 -0 -0 -0 -0 -0 -0 -0 -0 -0 -0 -0 -0 -0 -0 -0 -0 -0 -0
-0 -0 -0 -0 -0 -0 -0 -0 -0 -0 -0 -0 -0 -0 -0 -0 -0 -0 -0 -0 -0 -0
-0 -0 -0 -0 -0 -0 -0 -0 -0 -0 -0 -0 -0 -0 -0 -0 -0 -0 -0 -0 -0 -0
-0 -0 -0 -0 -0 -0 -0 -0 -0 -0 -0 -0 -0 -0 -0 -0 -0 -0 -0 -0 -0 -0
-0 -0 -0 -0 -0 -0 -0 -0 -0 -0 -0 -0 -0 -0 -0 -0 -0 -0 -0 -0 -0 -0
-0 -0 -0 -0 -0 -0 -0 -0 -0 -0 -0 -0 -0 -0 -0 -0 -0 -0 -0 -0 -0 -0
-0 -0 -0 -0 -0 -0 -0 -0 -0 -0 -0 -0 -0 -0 -0 -0 -0 -0 -0 -0 -0 -0
-0 -0 -0 -0 -0 -0 -0 -0 -0 -0 -0 -0 -0 -0 -0 -0 -0 -0 -0 -0 -0 -0
-0 -0 -0 -0 -0 -0 -0 -0 -0 -0 -0 -0 -0 -0 -0 -0 -0 -0 -0 -0 -0 -0
-0 -0 -0 -0 -0 -0 -0 -0 -0 -0 -0 -0 -0 -0 -0 -0 -0 -0 -0 -0 -0 -0
Wind_Speed
6 4 4 4 4 3 3 3 5 5 5 7 7 7 7 6 6 6 5 8 7 5
5 6 5 5 4 3 4 4 5 6 7 7 8 8 7 6 7 6 6 8 6 5
6 5 5 5 5 5 5 5 5 6 6 7 7 6 5 7 8 8 6 7 8 9
5 5 5 6 5 5 5 5 5 6 6 6 6 6 7 7 9 10 9 8 8 9
6 6 6 6 5 5 5 5 5 5 6 5 6 7 7 8 8 9 9 9 10 10
6 6 6 6 6 6 5 5 5 5 5 4 5 5 6 7 8 8 8 7 9 9
7 7 6 6 6 5 5 5 4 3 4 4 5 7 7 7 7 7 8 8 8 9
6 7 7 8 7 5 5 4 3 4 5 5 4 5 5 6 6 7 8 8 8 8
7 7 8 8 7 7 4 4 5 5 4 5 2 9 9 7 5 7 7 7 8 8
7 7 8 8 8 7 5 5 4 3 3 3 3 8 8 10 4 5 4 5 5 6
7 7 8 8 7 6 5 5 4 3 3 4 4 8 6 8 3 4 4 4 4 3
8 8 8 9 8 5 5 4 3 3 3 4 4 8 7 3 2 2 3 3 6 3
7 8 8 7 7 4 5 6 5 5 3 5 3 7 8 5 3 4 4 5 6 13
6 7 7 6 4 5 5 6 4 5 3 3 4 4 6 6 4 3 4 4 4 5
Wind_Direction
103 100 94 97 99 83 69 39 26 28 27 22 20 17 39 35 28 31 29 32 35 28
99 101 106 93 85 74 48 71 42 34 36 29 33 30 37 37 31 31 28 39 21 27
113 112 112 103 90 74 64 58 48 39 35 36 37 31 39 38 30 37 30 32 23 24
117 122 110 96 88 74 67 59 55 45 43 42 41 35 40 48 35 37 32 24 26 19
130 118 107 106 96 75 70 63 61 49 50 43 51 45 43 43 37 38 30 14 20 19
132 130 120 114 107 83 78 64 57 50 51 45 62 65 57 44 36 36 29 14 8 7
147 140 131 121 115 103 82 76 61 45 50 54 65 65 62 53 41 33 28 23 13 17
152 141 138 123 124 116 94 82 67 60 43 36 79 79 61 58 47 34 27 20 16 8
147 155 146 137 134 126 113 96 74 54 53 38 7 83 80 76 57 41 30 13 1 1
159 162 157 147 139 142 152 121 99 58 45 29 357 76 82 76 60 42 14 11 359 359
163 160 152 151 153 150 157 141 138 99 59 39 53 66 74 76 62 31 3 3 346 359
159 155 155 162 162 152 141 138 144 119 86 59 14 47 56 54 51 45 6 351 347 50
159 159 161 157 154 149 144 156 145 133 106 80 31 23 45 45 33 47 26 30 22 20
154 156 152 143 138 141 146 145 143 136 117 87 48 358 41 57 57 59 46 37 18 7